Regional Weather Roundup
Issued by NWS Boston, MA

Home | Current Version | Previous Version | Text Only | Print | Product List | Glossary On
Versions: 1 2 3 4 5 6 7 8 9 10 11 12 13 14 15 16 17 18 19 20 21 22 23 24 25 26 27 28 29 30 31 32 33 34 35 36 37 38 39 40 41 42 43 44 45 46 47 48 49 50
000
ASUS41 KBOX 250210
RWRBOX

REGIONAL WEATHER ROUNDUP
NATIONAL WEATHER SERVICE TAUNTON MA
1000 PM EDT THU JUL 24 2014

NOTE:  "FAIR" INDICATES FEW OR NO CLOUDS BELOW 12,000 FEET WITH NO
SIGNIFICANT WEATHER AND/OR OBSTRUCTIONS TO VISIBILITY.  THE FOLLOWING
OBSERVATION LOCATIONS DO NOT REPORT PRESENT WEATHER...PROVINCETOWN...
SMITHFIELD...BLOCK ISLAND...KEENE...AND OXFORD.

MAZALL-250300-
EASTERN MASSACHUSETTS

CITY           SKY/WX    TMP DP  RH WIND       PRES   REMARKS
BOSTON         PTCLDY    64  61  90 CALM      29.89R
BEVERLY        CLEAR     63  60  90 SW5       29.88R
LAWRENCE       CLEAR     67  62  84 CALM      29.91R
BEDFORD        CLEAR     63  61  93 NW3       29.88R
BLUE HILL        N/A     65  60  84 SE3       29.89R
NORWOOD        CLEAR     61  59  93 CALM      29.88R
MARSHFIELD     CLEAR     63  63 100 SW3       29.90R
PLYMOUTH       MOCLDY    62  58  86 CALM      29.88R
TAUNTON        PTCLDY    62  60  93 CALM      29.88R
NEW BEDFORD    CLOUDY    66  62  87 NE3       29.87R
$$

MAZALL-250300-
CAPE COD AND THE ISLANDS

CITY           SKY/WX    TMP DP  RH WIND       PRES   REMARKS
FALMOUTH       CLOUDY    63  63 100 CALM      29.88S
HYANNIS        CLEAR     63  60  90 CALM      29.87R
CHATHAM        CLEAR     63  61  93 CALM      29.88R
PROVINCETOWN   PTCLDY    61  59  94 CALM      29.89R
NANTUCKET      CLOUDY    65  63  93 NE6       29.88R
MARTHAS VNYRD  MOCLDY    60  59  96 CALM      29.87S
$$

MAZALL-250300-
CENTRAL AND WESTERN MASSACHUSETTS

CITY           SKY/WX    TMP DP  RH WIND       PRES   REMARKS
WORCESTER      CLOUDY    68  53  58 N8        29.92R
FITCHBURG      PTCLDY    65  57  75 N3        29.91R
ORANGE           N/A    N/A N/A N/A MISG      29.91R
SPRINGFIELD    PTCLDY    63  60  88 NE3       29.89R
WESTFIELD      MOCLDY    64  59  83 CALM      29.90R
NORTH ADAMS    PTCLDY    60  58  92 CALM      29.93R
PITTSFIELD     MOCLDY    64  55  72 W6        29.93R
$$

RIZALL-250300-
RHODE ISLAND

CITY           SKY/WX    TMP DP  RH WIND       PRES   REMARKS
PROVIDENCE     MOCLDY    69  60  73 NE3       29.89R
NEWPORT        CLOUDY    68  62  81 CALM      29.89R
BLOCK ISLAND   MOCLDY    68  63  83 SE7       29.89R
SMITHFIELD     MOCLDY    64  57  77 CALM      29.91R
WESTERLY       PTCLDY    70  65  84 CALM      29.90R
$$

CTZALL-250300-
CONNECTICUT

CITY           SKY/WX    TMP DP  RH WIND       PRES   REMARKS
BRADLEY INTL   MOCLDY    68  55  63 N6        29.88R
HARTFORD       MOCLDY    72  53  51 N7        29.88R
BRIDGEPORT     PTCLDY    74  56  53 N8        29.88R
DANBURY        MOCLDY    66  56  70 CALM      29.92R
GROTON         CLEAR     67  65  93 S3        29.88R
NEW HAVEN      MOCLDY    74  55  51 N6        29.88R
CHESTER        FAIR      66  64  94 CALM      29.90S
MERIDEN        MOCLDY    67  58  72 CALM      29.89R
WILLIMANTIC    MOCLDY    68  61  78 NE3       29.89R
OXFORD         MOCLDY    66  55  68 N5        29.93R
$$

MEZ002-015-021-024-NHZ003-005-008-011-012-014-VTZ005-008-250300-
NORTHERN NEW ENGLAND

CITY           SKY/WX    TMP DP  RH WIND       PRES   REMARKS
PORTLAND ME    PTCLDY    63  58  83 CALM      29.88R
BANGOR ME      PTCLDY    65  52  62 NW6       29.85R
CONCORD NH     CLEAR     64  54  69 NW5       29.89R
MANCHESTER NH  PTCLDY    70  54  56 NW8       29.87R
NASHUA NH      PTCLDY    69  56  63 CALM      29.90R
PORTSMOUTH NH  MOCLDY    64  61  87 VRB2      29.87R
JAFFREY NH     PTCLDY    59  57  93 CALM      29.93R
KEENE NH       CLEAR     61  50  67 CALM      29.92R
BURLINGTON VT  CLEAR     61  52  72 CALM      29.93R
MT. WASHINGTON PTCLDY    39  32  75 NW26        N/A  WCI  28
$$

NYZ052-076-250300-
EASTERN NEW YORK

CITY           SKY/WX    TMP DP  RH WIND       PRES   REMARKS
ALBANY         PTCLDY    69  51  52 NW9       29.92R
NEW YORK CITY  MOCLDY    76  56  49 N9        29.88R
$$

ANZALL-250300-
MARINE OBSERVATIONS

STATION/POSITION TIME  TEMP    WIND        PRES    VSBY  WAVE
                       AIR SEA DIR/SP/G                  HT/PER
                 (UTC) (F)     (DEG/KT/KT) (MB)    (MI)  (FT/S)
BOSTON BUOY      NOT AVBL
BUZZARDS BAY     NOT AVBL
NANTUCKET SOUND  NOT AVBL
MASS BAY-STELLWA NOT AVBL
ISLE OF SHOALS   NOT AVBL
S OF BLOCK IS    NOT AVBL
$$

......................KEY.........................
  SKY/WX - SKY CONDITION/PRESENT WEATHER
  TMP    - TEMPERATURE IN FAHRENHEIT
  DWPT   - DEWPOINT IN FAHRENHEIT
  RH     - RELATIVE HUMIDITY IN PERCENT
  WIND   - DIRECTION AND SPEED IN MPH
  PRES   - MEAN SEA LEVEL PRESSURE IN INCHES OF HG
  WCI    - WIND CHILL INDEX
  VSB    - VISIBILITY IN MILES
  HX     - HEAT INDEX
  TC     - TEMPERATURE IN CELSIUS
  VRB    - VARIABLE WIND DIRECTION
  N/A    - NOT AVAILABLE



USA.gov is the U.S. government's official web portal to all federal, state and local government web resources and services.